{"data":{"norad_id":58156,"intl_designator":"2023-166G","name":"STARLINK-30784","alt_names":[],"object_type":"PAYLOAD","status":"ACTIVE","operator":null,"country":"US","launch_date":"2023-10-29","launch_site_code":"AFWTR","launch_vehicle":null,"mission":null,"orbit_class":"UNKNOWN","rcs_meters":null,"size_class":null,"mass_kg":null,"dimensions":null,"purposes":["comms"],"wikipedia_slug":null,"has_3d_model":false,"image_url":null,"decayed_at":null,"tle_current":{"epoch":"2026-05-24T15:27:13.739328Z","epoch_age_seconds":112765,"freshness":"FRESH","line1":"1 58156U 23166G   26144.64390902 -.00000224  00000+0  45650-5 0  9996","line2":"2 58156  53.1606 227.1258 0001111  60.6760 299.4352 15.30188792144652","mean_motion":15.30188792,"eccentricity":0.0001111,"inclination_deg":53.1606,"raan_deg":227.1258,"arg_perigee_deg":60.676,"mean_anomaly_deg":299.4352,"bstar":4.565e-6,"rev_number":14465,"period_min":94.106034989178,"perigee_km":474.48712355843,"apogee_km":476.00994582424,"semimajor_km":6853.3855346913,"source":"CELESTRAK","updated_at":"2026-05-25T13:38:18.537253Z"}}}